Time,TemperatureF,DewpointF,PressureIn,WindDirection,WindDirectionDegrees,WindSpeedMPH,WindSpeedGustMPH,Humidity,HourlyPrecipIn,Conditions,Clouds,dailyrainin,SolarRadiationWatts/m^2,SoftwareType,DateUTC
2013-02-24 00:21:00,14.0,8.0,-100.00,SSW,195,7.0,7.0,75,0.00,,,0.00,0.000000,,2013-02-24 06:21:00,
2013-02-24 00:32:00,14.0,8.0,-100.00,SSW,195,7.0,7.0,75,0.00,,,0.00,0.000000,,2013-02-24 06:32:00,
2013-02-24 00:42:00,14.0,8.0,-100.00,SSW,195,7.0,7.0,75,0.00,,,0.00,0.000000,,2013-02-24 06:42:00,
2013-02-24 00:52:00,14.0,8.0,-100.00,SSW,195,7.0,7.0,75,0.00,,,0.00,0.000000,,2013-02-24 06:52:00,
2013-02-24 01:21:00,13.0,5.0,-100.00,South,177,5.0,9.0,70,0.00,,,0.00,0.000000,,2013-02-24 07:21:00,
2013-02-24 01:32:00,13.0,5.0,-100.00,South,177,5.0,9.0,70,0.00,,,0.00,0.000000,,2013-02-24 07:32:00,
2013-02-24 01:42:00,13.0,5.0,-100.00,South,177,5.0,9.0,70,0.00,,,0.00,0.000000,,2013-02-24 07:42:00,
2013-02-24 01:51:00,13.0,5.0,-100.00,South,177,5.0,9.0,70,0.00,,,0.00,0.000000,,2013-02-24 07:51:00,
2013-02-24 02:22:00,11.0,3.0,-100.00,SSW,207,7.0,9.0,68,0.00,,,0.00,0.000000,,2013-02-24 08:22:00,
2013-02-24 02:31:00,11.0,3.0,-100.00,SSW,207,7.0,9.0,68,0.00,,,0.00,0.000000,,2013-02-24 08:31:00,
2013-02-24 02:42:00,11.0,3.0,-100.00,SSW,207,7.0,9.0,68,0.00,,,0.00,0.000000,,2013-02-24 08:42:00,
2013-02-24 02:53:00,11.0,3.0,-100.00,SSW,207,7.0,9.0,68,0.00,,,0.00,0.000000,,2013-02-24 08:53:00,
2013-02-24 03:21:00,12.0,4.0,-100.00,SSW,202,8.0,9.0,68,0.00,,,0.00,0.000000,,2013-02-24 09:21:00,
2013-02-24 03:31:00,12.0,4.0,-100.00,SSW,202,8.0,9.0,68,0.00,,,0.00,0.000000,,2013-02-24 09:31:00,
2013-02-24 03:42:00,12.0,4.0,-100.00,SSW,202,8.0,9.0,68,0.00,,,0.00,0.000000,,2013-02-24 09:42:00,
2013-02-24 03:51:00,12.0,4.0,-100.00,SSW,202,8.0,9.0,68,0.00,,,0.00,0.000000,,2013-02-24 09:51:00,
2013-02-24 04:21:00,13.0,6.0,-100.00,SSW,208,7.0,9.0,73,-99.99,,,0.00,0.000000,,2013-02-24 10:21:00,
2013-02-24 05:21:00,15.0,4.0,-100.00,SSW,203,6.0,8.0,62,-99.99,,,0.00,0.000000,,2013-02-24 11:21:00,
2013-02-24 05:32:00,15.0,4.0,-100.00,SSW,203,6.0,8.0,62,-99.99,,,0.00,0.000000,,2013-02-24 11:32:00,
2013-02-24 06:22:00,13.0,3.0,-100.00,SW,225,9.0,12.0,65,-99.99,,,-99.99,0.000000,,2013-02-24 12:22:00,
2013-02-24 06:32:00,13.0,3.0,-100.00,SW,225,9.0,12.0,65,-99.99,,,-99.99,0.000000,,2013-02-24 12:32:00,
2013-02-24 06:46:00,13.0,3.0,-100.00,SW,225,9.0,12.0,65,-99.99,,,-99.99,0.000000,,2013-02-24 12:46:00,
2013-02-24 06:55:00,13.0,3.0,-100.00,SW,225,9.0,12.0,65,-99.99,,,-99.99,0.000000,,2013-02-24 12:55:00,
2013-02-24 07:26:00,13.0,6.0,-100.00,SW,222,7.0,10.0,72,0.00,,,0.00,0.000000,,2013-02-24 13:26:00,
2013-02-24 07:34:00,13.0,6.0,-100.00,SW,222,7.0,10.0,72,0.00,,,0.00,0.000000,,2013-02-24 13:34:00,
2013-02-24 07:44:00,13.0,6.0,-100.00,SW,222,7.0,10.0,72,0.00,,,0.00,0.000000,,2013-02-24 13:44:00,
2013-02-24 07:53:00,13.0,6.0,-100.00,SW,222,7.0,10.0,72,0.00,,,0.00,0.000000,,2013-02-24 13:53:00,
2013-02-24 08:34:00,13.0,7.0,-100.00,SW,218,8.0,11.0,78,-99.99,,,0.00,17.000000,,2013-02-24 14:34:00,
2013-02-24 08:53:00,13.0,7.0,-100.00,SW,218,8.0,11.0,78,-99.99,,,0.00,17.000000,,2013-02-24 14:53:00,
2013-02-24 09:23:00,15.0,8.0,-100.00,SW,228,8.0,10.0,74,0.00,,,0.00,146.000000,,2013-02-24 15:23:00,
2013-02-24 09:32:00,15.0,8.0,-100.00,SW,228,8.0,10.0,74,0.00,,,0.00,146.000000,,2013-02-24 15:32:00,
2013-02-24 09:42:00,15.0,8.0,-100.00,SW,228,8.0,10.0,74,0.00,,,0.00,146.000000,,2013-02-24 15:42:00,
2013-02-24 09:52:00,15.0,8.0,-100.00,SW,228,8.0,10.0,74,0.00,,,0.00,146.000000,,2013-02-24 15:52:00,
2013-02-24 10:21:00,17.0,10.0,-100.00,SW,235,5.0,9.0,73,0.00,,,0.00,312.000000,,2013-02-24 16:21:00,
2013-02-24 10:32:00,17.0,10.0,-100.00,SW,235,5.0,9.0,73,0.00,,,0.00,312.000000,,2013-02-24 16:32:00,
2013-02-24 10:42:00,17.0,10.0,-100.00,SW,235,5.0,9.0,73,0.00,,,0.00,312.000000,,2013-02-24 16:42:00,
2013-02-24 10:52:00,17.0,10.0,-100.00,SW,235,5.0,9.0,73,0.00,,,0.00,312.000000,,2013-02-24 16:52:00,
2013-02-24 11:21:00,20.0,11.0,-100.00,WSW,242,8.0,10.0,69,0.00,,,0.00,490.000000,,2013-02-24 17:21:00,
2013-02-24 11:32:00,20.0,11.0,-100.00,WSW,242,8.0,10.0,69,0.00,,,0.00,490.000000,,2013-02-24 17:32:00,
2013-02-24 11:42:00,20.0,11.0,-100.00,WSW,242,8.0,10.0,69,0.00,,,0.00,490.000000,,2013-02-24 17:42:00,
2013-02-24 11:52:00,20.0,11.0,-100.00,WSW,242,8.0,10.0,69,0.00,,,0.00,490.000000,,2013-02-24 17:52:00,
2013-02-24 12:22:00,22.0,14.0,-100.00,SSW,212,8.0,10.0,70,0.00,,,0.00,670.000000,,2013-02-24 18:22:00,
2013-02-24 12:32:00,22.0,14.0,-100.00,SSW,212,8.0,10.0,70,0.00,,,0.00,670.000000,,2013-02-24 18:32:00,
2013-02-24 12:42:00,22.0,14.0,-100.00,SSW,212,8.0,10.0,70,0.00,,,0.00,670.000000,,2013-02-24 18:42:00,
2013-02-24 12:52:00,22.0,14.0,-100.00,SSW,212,8.0,10.0,70,0.00,,,0.00,670.000000,,2013-02-24 18:52:00,
2013-02-24 13:22:00,26.0,15.0,-100.00,SW,217,8.0,11.0,63,0.00,,,0.00,749.000000,,2013-02-24 19:22:00,
2013-02-24 13:32:00,26.0,15.0,-100.00,SW,217,8.0,11.0,63,0.00,,,0.00,749.000000,,2013-02-24 19:32:00,
2013-02-24 13:42:00,26.0,15.0,-100.00,SW,217,8.0,11.0,63,0.00,,,0.00,749.000000,,2013-02-24 19:42:00,
2013-02-24 13:51:00,26.0,15.0,-100.00,SW,217,8.0,11.0,63,0.00,,,0.00,749.000000,,2013-02-24 19:51:00,
2013-02-24 14:21:00,27.0,17.0,-100.00,SW,220,12.0,14.0,65,0.00,,,0.00,755.000000,,2013-02-24 20:21:00,
2013-02-24 14:32:00,27.0,17.0,-100.00,SW,220,12.0,14.0,65,0.00,,,0.00,755.000000,,2013-02-24 20:32:00,
2013-02-24 14:42:00,27.0,17.0,-100.00,SW,220,12.0,14.0,65,0.00,,,0.00,755.000000,,2013-02-24 20:42:00,
2013-02-24 14:52:00,27.0,17.0,-100.00,SW,220,12.0,14.0,65,0.00,,,0.00,755.000000,,2013-02-24 20:52:00,
2013-02-24 15:21:00,26.0,17.0,-100.00,SW,234,11.0,15.0,68,0.00,,,0.00,552.000000,,2013-02-24 21:21:00,
2013-02-24 15:32:00,26.0,17.0,-100.00,SW,234,11.0,15.0,68,0.00,,,0.00,552.000000,,2013-02-24 21:32:00,
2013-02-24 15:42:00,26.0,17.0,-100.00,SW,234,11.0,15.0,68,0.00,,,0.00,552.000000,,2013-02-24 21:42:00,
2013-02-24 15:52:00,26.0,17.0,-100.00,SW,234,11.0,15.0,68,0.00,,,0.00,552.000000,,2013-02-24 21:52:00,
2013-02-24 16:21:00,24.0,17.0,-100.00,SW,232,11.0,13.0,74,0.00,,,0.00,365.000000,,2013-02-24 22:21:00,
2013-02-24 16:32:00,24.0,17.0,-100.00,SW,232,11.0,13.0,74,0.00,,,0.00,365.000000,,2013-02-24 22:32:00,
2013-02-24 16:41:00,24.0,17.0,-100.00,SW,232,11.0,13.0,74,0.00,,,0.00,365.000000,,2013-02-24 22:41:00,
2013-02-24 16:52:00,24.0,17.0,-100.00,SW,232,11.0,13.0,74,0.00,,,0.00,365.000000,,2013-02-24 22:52:00,
2013-02-24 17:21:00,21.0,16.0,-100.00,WSW,240,9.0,12.0,82,0.00,,,0.00,160.000000,,2013-02-24 23:21:00,
2013-02-24 17:32:00,21.0,16.0,-100.00,WSW,240,9.0,12.0,82,0.00,,,0.00,160.000000,,2013-02-24 23:32:00,
2013-02-24 17:42:00,21.0,16.0,-100.00,WSW,240,9.0,12.0,82,0.00,,,0.00,160.000000,,2013-02-24 23:42:00,
2013-02-24 17:52:00,21.0,16.0,-100.00,WSW,240,9.0,12.0,82,0.00,,,0.00,160.000000,,2013-02-24 23:52:00,
2013-02-24 18:21:00,19.0,16.0,-100.00,SW,235,10.0,11.0,86,0.00,,,0.00,65.000000,,2013-02-25 00:21:00,
2013-02-24 18:32:00,19.0,16.0,-100.00,SW,235,10.0,11.0,86,0.00,,,0.00,65.000000,,2013-02-25 00:32:00,
2013-02-24 18:42:00,19.0,16.0,-100.00,SW,235,10.0,11.0,86,0.00,,,0.00,65.000000,,2013-02-25 00:42:00,
2013-02-24 18:51:00,19.0,16.0,-100.00,SW,235,10.0,11.0,86,0.00,,,0.00,65.000000,,2013-02-25 00:51:00,
2013-02-24 19:21:00,20.0,18.0,-100.00,WSW,242,10.0,13.0,91,0.00,,,0.00,2.000000,,2013-02-25 01:21:00,
2013-02-24 19:32:00,20.0,18.0,-100.00,WSW,242,10.0,13.0,91,0.00,,,0.00,2.000000,,2013-02-25 01:32:00,
2013-02-24 19:42:00,20.0,18.0,-100.00,WSW,242,10.0,13.0,91,0.00,,,0.00,2.000000,,2013-02-25 01:42:00,
2013-02-24 19:52:00,20.0,18.0,-100.00,WSW,242,10.0,13.0,91,0.00,,,0.00,2.000000,,2013-02-25 01:52:00,
2013-02-24 20:21:00,20.0,18.0,-100.00,SW,224,7.0,10.0,92,0.00,,,0.00,0.000000,,2013-02-25 02:21:00,
2013-02-24 20:32:00,20.0,18.0,-100.00,SW,224,7.0,10.0,92,0.00,,,0.00,0.000000,,2013-02-25 02:32:00,
2013-02-24 20:41:00,20.0,18.0,-100.00,SW,224,7.0,10.0,92,0.00,,,0.00,0.000000,,2013-02-25 02:41:00,
2013-02-24 20:52:00,20.0,18.0,-100.00,SW,224,7.0,10.0,92,0.00,,,0.00,0.000000,,2013-02-25 02:52:00,
2013-02-24 21:21:00,21.0,20.0,-100.00,West,276,9.0,11.0,94,0.00,,,0.00,0.000000,,2013-02-25 03:21:00,
2013-02-24 21:31:00,21.0,20.0,-100.00,West,276,9.0,11.0,94,0.00,,,0.00,0.000000,,2013-02-25 03:31:00,
2013-02-24 21:42:00,21.0,20.0,-100.00,West,276,9.0,11.0,94,0.00,,,0.00,0.000000,,2013-02-25 03:42:00,
2013-02-24 21:51:00,21.0,20.0,-100.00,West,276,9.0,11.0,94,0.00,,,0.00,0.000000,,2013-02-25 03:51:00,
2013-02-24 22:21:00,21.0,21.0,-100.00,WNW,283,6.0,10.0,98,0.00,,,0.00,0.000000,,2013-02-25 04:21:00,
2013-02-24 22:32:00,21.0,21.0,-100.00,WNW,283,6.0,10.0,98,0.00,,,0.00,0.000000,,2013-02-25 04:32:00,
2013-02-24 22:42:00,21.0,21.0,-100.00,WNW,283,6.0,10.0,98,0.00,,,0.00,0.000000,,2013-02-25 04:42:00,
2013-02-24 22:51:00,21.0,21.0,-100.00,WNW,283,6.0,10.0,98,0.00,,,0.00,0.000000,,2013-02-25 04:51:00,
2013-02-24 23:22:00,21.0,21.0,-100.00,WSW,255,8.0,11.0,99,0.00,,,0.00,0.000000,,2013-02-25 05:22:00,
2013-02-24 23:32:00,21.0,21.0,-100.00,WSW,255,8.0,11.0,99,0.00,,,0.00,0.000000,,2013-02-25 05:32:00,
2013-02-24 23:42:00,21.0,21.0,-100.00,WSW,255,8.0,11.0,99,0.00,,,0.00,0.000000,,2013-02-25 05:42:00,
2013-02-24 23:52:00,21.0,21.0,-100.00,WSW,255,8.0,11.0,99,0.00,,,0.00,0.000000,,2013-02-25 05:52:00,